Mittivakkat Sermersua

KL  EN  DA
ASIAQ
Weather Now GREENLAND SURVEY
Updated [WGT/WGST] Temperature [°C] Wind [m/s] Air pressure [hPa] Relative humidity [%] Precipitation [mm]
Present Wind chill Speed Max
12.05 18:00-0,80,00,0 ⇑n/a970100n/a
12.05 17:00-0,60,00,1 ⇑n/a970100n/a
12.05 16:00-0,60,00,0 ⇑n/a970100n/a
12.05 15:00-0,70,00,2 ⇗n/a970100n/a
12.05 14:00-0,80,00,0 ⇓n/a970100n/a
12.05 13:00-0,90,00,0 ⇒n/a970100n/a
12.05 12:00-1,40,00,8 ⇗n/a970100n/a
12.05 11:00-1,80,00,0 ⇓n/a970100n/a
12.05 10:00-2,00,00,1 ⇘n/a970100n/a
12.05 09:00-2,30,01,2 ⇙n/a970100n/a
12.05 08:00-2,50,00,9 ⇐n/a970100n/a
12.05 07:00-2,7-6,42,6 ⇐n/a970100n/a
12.05 06:00-2,90,00,8 ⇐n/a969100n/a
12.05 05:00-3,20,00,1 ⇐n/a969100n/a
12.05 04:00-3,6-6,41,8 ⇐n/a969100n/a
12.05 03:00-3,6-7,62,7 ⇐n/a969100n/a
12.05 02:00-3,7-7,82,9 ⇐n/a968100n/a
12.05 01:00-3,5-7,93,2 ⇐n/a968100n/a
12.05 00:00-3,3-6,62,3 ⇐n/a968100n/a
11.05 23:00-3,0-6,72,6 ⇐n/a967100n/a
11.05 22:00-2,4-5,62,2 ⇐n/a967100n/a
11.05 21:00-1,70,00,7 ⇐n/a966100n/a
11.05 20:00-1,0-2,91,5 ⇐n/a966100n/a
11.05 19:00-0,60,00,0 ⇐n/a965100n/a
11.05 18:00-0,40,00,0 ⇓n/a965100n/a
Position: (65.6922,-37.828)

[Back]